When you browse on this site, cookies collect data to enhance your experience and personalize the content and advertising you see.
Visit our Privacy Policy to learn more. By continuing to use the site, you agree to this use of cookies and data.
  • In United Kingdom
  • List of Countries
  • For 7 days
  • Water Temperature
  • Satellite Maps
  • Weather Map
  • Weather Widgets
  • user-avatar
    Login

    Hourly Weather Yangishahar

    Today, 22 February, Friday

    Time Temperature Precipitation Wind Pressure Humidity
    00:00 -1°C° 0 mm 3 mps 710 mmHg 52%
    01:00 -1°C° 0 mm 3 mps 710 mmHg 48%
    02:00 -1°C° 0 mm 3 mps 710 mmHg 44%
    03:00 -1°C° 0 mm 3 mps 709 mmHg 42%
    04:00 -1°C° 0 mm 3 mps 709 mmHg 40%
    05:00 -1°C° 0 mm 3 mps 708 mmHg 39%
    06:00 -1°C° 0 mm 3 mps 708 mmHg 37%
    07:00 -1°C° 0 mm 3 mps 708 mmHg 35%
    08:00 0°C° 0 mm 3 mps 708 mmHg 34%
    09:00 +1°C° 0 mm 3 mps 707 mmHg 30%
    10:00 +4°C° 0 mm 2 mps 707 mmHg 27%
    11:00 +6°C° 0 mm 2 mps 706 mmHg 23%
    12:00 +7°C° 0 mm 2 mps 706 mmHg 23%
    13:00 +8°C° 0 mm 2 mps 705 mmHg 22%
    14:00 +8°C° 0 mm 2 mps 705 mmHg 21%
    15:00 +9°C° 0 mm 1 mps 705 mmHg 24%
    16:00 +9°C° 0 mm 1 mps 705 mmHg 27%
    17:00 +9°C° 0 mm 1 mps 705 mmHg 29%
    18:00 +8°C° 0 mm 1 mps 706 mmHg 32%
    19:00 +5°C° 0 mm 2 mps 706 mmHg 35%
    20:00 +4°C° 0 mm 2 mps 706 mmHg 37%
    21:00 +3°C° 0 mm 3 mps 706 mmHg 36%
    22:00 +2°C° 0 mm 3 mps 706 mmHg 36%
    23:00 +2°C° 0 mm 3 mps 706 mmHg 35%

    Tomorrow, 23 February, Saturday

    Time Temperature Precipitation Wind Pressure Humidity
    00:00 +2°C° 0 mm 3 mps 706 mmHg 34%
    01:00 +1°C° 0 mm 3 mps 706 mmHg 33%
    02:00 +1°C° 0 mm 3 mps 706 mmHg 31%
    03:00 +2°C° 0 mm 2 mps 706 mmHg 31%
    04:00 +2°C° 0 mm 2 mps 705 mmHg 30%
    05:00 +2°C° 0 mm 2 mps 705 mmHg 29%
    06:00 +2°C° 0 mm 2 mps 705 mmHg 29%
    07:00 +2°C° 0 mm 2 mps 705 mmHg 28%
    08:00 +2°C° 0 mm 2 mps 705 mmHg 27%
    09:00 +4°C° 0 mm 2 mps 705 mmHg 25%
    10:00 +7°C° 0 mm 1 mps 704 mmHg 22%
    11:00 +9°C° 0 mm 1 mps 704 mmHg 19%
    12:00 +10°C° 0 mm 1 mps 704 mmHg 19%
    13:00 +10°C° 0 mm 1 mps 703 mmHg 19%
    14:00 +11°C° 0 mm 1 mps 703 mmHg 19%
    15:00 +11°C° 0 mm 1 mps 703 mmHg 21%
    16:00 +11°C° 0 mm 1 mps 704 mmHg 23%
    17:00 +10°C° 0 mm 1 mps 704 mmHg 26%
    18:00 +9°C° 0 mm 1 mps 704 mmHg 28%
    19:00 +8°C° 0 mm 1 mps 704 mmHg 30%
    20:00 +6°C° 0 mm 2 mps 705 mmHg 32%
    21:00 +5°C° 0 mm 2 mps 705 mmHg 34%
    22:00 +5°C° 0 mm 2 mps 704 mmHg 35%
    23:00 +3°C° 0 mm 3 mps 704 mmHg 37%

    Day after tomorrow, 24 February, Sunday

    Time Temperature Precipitation Wind Pressure Humidity
    00:00 +3°C° 0 mm 3 mps 704 mmHg 36%
    01:00 +3°C° 0 mm 3 mps 704 mmHg 36%
    02:00 +2°C° 0 mm 3 mps 704 mmHg 36%
    03:00 +3°C° 0 mm 2 mps 704 mmHg 34%
    04:00 +3°C° 0 mm 2 mps 703 mmHg 33%
    05:00 +3°C° 0 mm 2 mps 703 mmHg 32%
    06:00 +3°C° 0 mm 2 mps 703 mmHg 32%
    07:00 +3°C° 0 mm 2 mps 703 mmHg 31%
    08:00 +3°C° 0 mm 2 mps 704 mmHg 30%
    09:00 +5°C° 0 mm 2 mps 703 mmHg 27%
    10:00 +7°C° 0 mm 1 mps 703 mmHg 23%
    11:00 +9°C° 0 mm 1 mps 703 mmHg 20%
    12:00 +9°C° 0 mm 1 mps 703 mmHg 19%
    13:00 +10°C° 0 mm 1 mps 703 mmHg 19%
    14:00 +11°C° 0 mm 1 mps 702 mmHg 18%
    15:00 +11°C° 0 mm 1 mps 703 mmHg 20%
    16:00 +10°C° 0 mm 1 mps 703 mmHg 21%
    17:00 +9°C° 0 mm 0 mps 703 mmHg 22%
    18:00 +9°C° 0 mm 1 mps 703 mmHg 25%
    19:00 +8°C° 0 mm 1 mps 704 mmHg 28%
    20:00 +7°C° 0 mm 1 mps 704 mmHg 31%
    21:00 +6°C° 0 mm 2 mps 704 mmHg 35%
    22:00 +5°C° 0 mm 2 mps 704 mmHg 38%
    23:00 +4°C° 0 mm 3 mps 704 mmHg 41%

    25 February, Monday

    Time Temperature Precipitation Wind Pressure Humidity
    00:00 +3°C° 0 mm 3 mps 704 mmHg 42%
    01:00 +3°C° 0 mm 3 mps 704 mmHg 43%
    02:00 +3°C° 0 mm 3 mps 704 mmHg 44%
    03:00 +3°C° 0 mm 2 mps 704 mmHg 44%
    04:00 +3°C° 0 mm 2 mps 704 mmHg 44%
    05:00 +3°C° 0 mm 2 mps 704 mmHg 43%
    06:00 +3°C° 0 mm 2 mps 704 mmHg 43%
    07:00 +3°C° 0 mm 2 mps 704 mmHg 42%
    08:00 +3°C° 0 mm 2 mps 704 mmHg 41%
    09:00 +5°C° 0 mm 2 mps 704 mmHg 36%
    10:00 +6°C° 0 mm 2 mps 703 mmHg 31%
    11:00 +8°C° 0 mm 2 mps 703 mmHg 26%
    12:00 +8°C° 0 mm 2 mps 703 mmHg 26%
    13:00 +10°C° 0 mm 1 mps 702 mmHg 26%
    14:00 +10°C° 0 mm 1 mps 702 mmHg 26%
    15:00 +10°C° 0 mm 1 mps 702 mmHg 27%
    16:00 +10°C° 0 mm 1 mps 702 mmHg 28%
    17:00 +9°C° 0 mm 0 mps 702 mmHg 28%
    18:00 +9°C° 0 mm 1 mps 703 mmHg 33%
    19:00 +8°C° 0 mm 1 mps 703 mmHg 38%
    20:00 +6°C° 0 mm 2 mps 704 mmHg 42%
    21:00 +6°C° 0 mm 2 mps 704 mmHg 45%
    22:00 +5°C° 0 mm 2 mps 704 mmHg 48%
    23:00 +4°C° 0 mm 3 mps 703 mmHg 50%

    26 February, Tuesday

    Time Temperature Precipitation Wind Pressure Humidity
    00:00 +3°C° 0 mm 3 mps 703 mmHg 50%
    01:00 +3°C° 0 mm 3 mps 703 mmHg 50%
    02:00 +3°C° 0 mm 3 mps 703 mmHg 49%
    03:00 +2°C° 0 mm 3 mps 703 mmHg 48%
    04:00 +2°C° 0 mm 3 mps 703 mmHg 47%
    05:00 +2°C° 0 mm 3 mps 703 mmHg 46%
    06:00 +2°C° 0 mm 3 mps 703 mmHg 45%
    07:00 +2°C° 0 mm 3 mps 703 mmHg 44%
    08:00 +2°C° 0 mm 3 mps 703 mmHg 43%
    09:00 +4°C° 0 mm 3 mps 702 mmHg 39%
    10:00 +6°C° 0 mm 2 mps 702 mmHg 35%
    11:00 +7°C° 0 mm 2 mps 701 mmHg 30%
    12:00 +8°C° 0 mm 2 mps 701 mmHg 30%
    13:00 +9°C° 0 mm 1 mps 700 mmHg 29%
    14:00 +10°C° 0 mm 1 mps 700 mmHg 29%
    15:00 +10°C° 0 mm 1 mps 700 mmHg 30%
    16:00 +10°C° 0 mm 1 mps 700 mmHg 30%
    17:00 +9°C° 0 mm 0 mps 700 mmHg 31%
    18:00 +9°C° 0 mm 1 mps 701 mmHg 35%
    19:00 +8°C° 0 mm 1 mps 701 mmHg 38%
    20:00 +6°C° 0 mm 2 mps 701 mmHg 42%
    21:00 +6°C° 0 mm 2 mps 701 mmHg 44%
    22:00 +4°C° 0 mm 3 mps 701 mmHg 45%
    23:00 +3°C° 0 mm 3 mps 701 mmHg 46%

    27 February, Wednesday

    Time Temperature Precipitation Wind Pressure Humidity
    00:00 +3°C° 0 mm 3 mps 700 mmHg 46%
    01:00 +3°C° 0 mm 3 mps 700 mmHg 45%
    02:00 +2°C° 0 mm 3 mps 700 mmHg 44%
    03:00 +2°C° 0 mm 3 mps 699 mmHg 43%
    04:00 +2°C° 0 mm 3 mps 699 mmHg 42%
    05:00 +2°C° 0 mm 3 mps 699 mmHg 41%
    06:00 +2°C° 0 mm 3 mps 699 mmHg 40%
    07:00 +2°C° 0 mm 3 mps 698 mmHg 39%
    08:00 +2°C° 0 mm 3 mps 698 mmHg 38%
    09:00 +4°C° 0 mm 3 mps 698 mmHg 34%
    10:00 +6°C° 0 mm 2 mps 697 mmHg 29%
    11:00 +8°C° 0 mm 2 mps 696 mmHg 25%
    12:00 +9°C° 0 mm 2 mps 696 mmHg 25%
    13:00 +9°C° 0 mm 2 mps 695 mmHg 24%
    14:00 +10°C° 0 mm 2 mps 695 mmHg 23%
    15:00 +10°C° 0 mm 2 mps 695 mmHg 24%
    16:00 +11°C° 0 mm 1 mps 695 mmHg 24%
    17:00 +11°C° 0 mm 1 mps 695 mmHg 24%
    18:00 +9°C° 0 mm 2 mps 695 mmHg 29%
    19:00 +8°C° 0 mm 3 mps 695 mmHg 33%
    20:00 +5°C° 0 mm 3 mps 695 mmHg 37%
    21:00 +5°C° 0 mm 4 mps 695 mmHg 36%
    22:00 +4°C° 0 mm 4 mps 695 mmHg 35%
    23:00 +4°C° 0 mm 4 mps 695 mmHg 34%
    Show more